KF5WOE-13 Weather Reports


time (UTC)temp
C
wind
direction
speed
KPH
gust
KPH
rain 1hr
cm
rain 24hr
cm
rain mn
cm
humidity
%
barometer
mb
20260506081443 60 16 9.7 12.9 0.00 0.00 0.00 1010.2
20260506080939 60 8 12.9 14.5 0.00 0.00 0.00 1010.2
20260506080436 60 12 17.7 20.9 0.00 0.00 0.00 1010.0
20260506073420 60 324 4.8 8.0 0.00 0.00 0.00 1010.0
20260506072918 60 22 12.9 16.1 0.00 0.00 0.00 1010.1
20260506072414 60 322 9.7 9.7 0.00 0.00 0.00 1010.5
20260506071912 60 350 8.0 9.7 0.00 0.00 0.00 1010.1
20260506071410 60 329 8.0 9.7 0.00 0.00 0.00 1010.5
20260506070907 60 328 8.0 9.7 0.00 0.00 0.00 1010.3
20260506070403 60 348 8.0 9.7 0.00 0.00 0.00 1010.1
20260506062341 60 41 8.0 9.7 0.00 0.00 0.00 1009.2
20260506061837 60 17 14.5 17.7 0.00 0.00 0.00 1009.0
20260506061333 60 28 0.0 0.0 0.00 0.00 0.00 1009.1
20260506060832 60 40 6.4 9.7 0.00 0.00 0.00 1009.6
20260506060329 60 5 17.7 22.5 0.00 0.00 0.00 1009.6
20260506051301 60 13 20.9 24.1 0.00 0.00 0.00 1009.6
20260506050759 60 18 20.9 24.1 0.00 0.00 0.00 1009.6
20260506050256 60 12 17.7 22.5 0.00 0.00 0.00 1009.7
20260506044747 60 1 8.0 9.7 0.00 0.00 0.00 1009.5
20260506044244 60 30 11.3 14.5 0.00 0.00 0.00 1009.6
20260506043742 60 10 12.9 14.5 0.00 0.00 0.00 1009.8
20260506043239 60 16 12.9 14.5 0.00 0.00 0.00 1009.6
20260506042737 60 310 11.3 14.5 0.00 0.00 0.00 1009.5
20260506042236 60 318 12.9 17.7 0.00 0.00 0.00 1009.2
20260506041734 60 354 11.3 12.9 0.00 0.00 0.00 1009.6
20260506041230 60 351 14.5 16.1 0.00 0.00 0.00 1009.6
20260506040728 60 316 9.7 11.3 0.00 0.00 0.00 1009.5
20260506040225 60 19 16.1 17.7 0.00 0.00 0.00 1009.5
20260506035721 60 3 16.1 20.9 0.00 0.00 0.00 1009.5
20260506035218 60 358 11.3 14.5 0.00 0.00 0.00 1009.4
20260506034715 60 44 8.0 9.7 0.00 0.00 0.00 1009.6
20260506034213 60 348 19.3 24.1 0.00 0.00 0.00 1009.4
20260506033710 60 342 11.3 16.1 0.00 0.00 0.00 1009.4
20260506033207 60 345 24.1 29.0 0.00 0.00 0.00 1009.4
20260506032703 60 8 20.9 22.5 0.00 0.00 0.00 1009.2
20260506032201 60 23 11.3 14.5 0.00 0.00 0.00 1009.2
20260506031657 60 308 8.0 9.7 0.00 0.00 0.00 1008.9
20260506031155 60 19 20.9 24.1 0.00 0.00 0.00 1008.6
20260506030653 60 35 11.3 16.1 0.00 0.00 0.00 1008.4
20260506030149 60 357 17.7 22.5 0.00 0.00 0.00 1008.7
20260506025646 60 18 12.9 16.1 0.00 0.00 0.00 1008.6
20260506025142 60 4 17.7 17.7 0.00 0.00 0.00 1008.4
20260506024640 60 356 17.7 20.9 0.00 0.00 0.00 1008.2
20260506024136 60 316 9.7 11.3 0.00 0.00 0.00 1008.1
20260506023632 60 6 16.1 20.9 0.00 0.00 0.00 1007.9
20260506023130 60 14 16.1 17.7 0.00 0.00 0.00 1007.7
20260506022627 60 2 16.1 20.9 0.00 0.00 0.00 1007.3
20260506022124 60 342 14.5 17.7 0.00 0.00 0.00 1007.3
20260506021622 60 28 11.3 12.9 0.00 0.00 0.00 1007.6
20260506021119 60 358 14.5 17.7 0.00 0.00 0.00 1007.1
20260506020616 60 16 11.3 16.1 0.00 0.00 0.00 1006.7
20260506020114 60 15 17.7 20.9 0.00 0.00 0.00 1006.6
20260506015611 60 7 11.3 17.7 0.00 0.00 0.00 1006.7
20260506015108 60 343 11.3 12.9 0.00 0.00 0.00 1007.0
20260506014606 60 32 14.5 17.7 0.00 0.00 0.00 1006.9
20260506014101 60 333 0.0 0.0 0.00 0.00 0.00 1006.8
20260506013559 60 16 1.6 8.0 0.00 0.00 0.00 1006.5
20260506013055 60 6 11.3 14.5 0.00 0.00 0.00 1006.2
20260506012552 60 28 9.7 12.9 0.00 0.00 0.00 1006.3
20260506012048 60 3 12.9 14.5 0.00 0.00 0.00 1006.4
20260506011546 60 10 17.7 24.1 0.00 0.00 0.00 1006.0
20260506011037 60 337 9.7 11.3 0.00 0.00 0.00 1006.2
20260506010537 60 358 8.0 9.7 0.00 0.00 0.00 1005.9
20260506010033 60 35 9.7 12.9 0.00 0.00 0.00 1005.6
20260506005530 60 37 1.6 3.2 0.00 0.00 0.00 1005.5
20260506005025 60 356 3.2 4.8 0.00 0.00 0.00 1005.3
20260506004523 60 348 14.5 16.1 0.00 0.00 0.00 1005.1
20260506004020 60 351 17.7 24.1 0.00 0.00 0.00 1005.0
20260506003516 60 346 17.7 17.7 0.00 0.00 0.00 1005.0
20260506003012 60 318 11.3 14.5 0.00 0.00 0.00 1005.3
20260506002508 60 358 9.7 11.3 0.00 0.00 0.00 1005.1
20260506002003 60 347 14.5 16.1 0.00 0.00 0.00 1005.1
20260506001501 60 0 17.7 17.7 0.00 0.00 0.00 1005.0
20260506000958 60 17 19.3 25.7 0.00 0.00 0.00 1004.7
20260506000455 60 10 14.5 17.7 0.00 0.00 0.00 1005.2
20260505235952 60 3 20.9 25.7 0.00 0.00 0.00 1005.1
20260505235451 60 311 8.0 9.7 0.00 0.00 0.00 1004.8
20260505234947 60 354 9.7 12.9 0.00 0.00 0.00 1004.8
20260505234444 60 331 12.9 14.5 0.00 0.00 0.00 1004.9
20260505233941 60 354 8.0 11.3 0.00 0.00 0.00 1004.8
20260505233439 60 353 12.9 20.9 0.00 0.00 0.00 1004.7
20260505232936 60 315 16.1 20.9 0.00 0.00 0.00 1004.8
20260505232434 60 359 27.4 35.4 0.00 0.00 0.00 1004.4
20260505231931 60 359 24.1 33.8 0.00 0.00 0.00 1004.3
20260505231428 60 7 27.4 32.2 0.00 0.00 0.00 1004.3
20260505230926 60 354 17.7 22.5 0.00 0.00 0.00 1004.0
20260505230423 60 356 20.9 25.7 0.00 0.00 0.00 1004.3
20260505225920 60 350 14.5 17.7 0.00 0.00 0.00 1003.9
20260505225417 60 358 27.4 33.8 0.00 0.00 0.00 1003.9
20260505224912 60 24 24.1 27.4 0.00 0.00 0.00 1003.6
20260505224410 60 345 17.7 22.5 0.00 0.00 0.00 1003.8
20260505223907 60 22 20.9 27.4 0.00 0.00 0.00 1004.2
20260505223404 60 8 24.1 33.8 0.00 0.00 0.00 1003.8
20260505222859 60 354 17.7 22.5 0.00 0.00 0.00 1003.4
20260505222356 60 359 17.7 24.1 0.00 0.00 0.00 1003.4
20260505221853 60 4 11.3 16.1 0.00 0.00 0.00 1003.5
20260505221350 60 17 4.8 9.7 0.00 0.00 0.00 1003.4
20260505220847 60 8 9.7 16.1 0.00 0.00 0.00 1003.5
20260505220344 60 23 12.9 14.5 0.00 0.00 0.00 1003.5
20260505215841 60 20 12.9 16.1 0.00 0.00 0.00 1003.3
20260505215339 60 352 11.3 12.9 0.00 0.00 0.00 1003.7
20260505214837 60 17 17.7 22.5 0.00 0.00 0.00 1003.3
20260505214334 60 324 6.4 11.3 0.00 0.00 0.00 1003.4
20260505213831 60 7 3.2 11.3 0.00 0.00 0.00 1003.3
20260505213329 60 0 11.3 12.9 0.00 0.00 0.00 1003.4
20260505212825 60 345 16.1 17.7 0.00 0.00 0.00 1003.3
20260505212322 60 22 14.5 17.7 0.00 0.00 0.00 1003.3
20260505211818 60 317 3.2 9.7 0.00 0.00 0.00 1003.3
20260505211316 60 305 0.0 0.0 0.00 0.00 0.00 1003.3
20260505210812 60 316 4.8 9.7 0.00 0.00 0.00 1003.5
20260505210309 60 258 0.0 0.0 0.00 0.00 0.00 1003.4
20260505205806 60 250 0.0 0.0 0.00 0.00 0.00 1003.7
20260505205305 60 250 0.0 0.0 0.00 0.00 0.00 1003.7
20260505204801 60 298 4.8 8.0 0.00 0.00 0.00 1003.6
20260505204259 60 229 0.0 1.6 0.00 0.00 0.00 1003.7
20260505203755 60 265 0.0 0.0 0.00 0.00 0.00 1003.8
20260505203253 60 268 0.0 0.0 0.00 0.00 0.00 1003.8
20260505202749 60 311 0.0 0.0 0.00 0.00 0.00 1004.2
20260505202245 60 300 0.0 0.0 0.00 0.00 0.00 1003.8
20260505201741 60 318 0.0 0.0 0.00 0.00 0.00 1004.4
20260505201239 60 253 0.0 0.0 0.00 0.00 0.00 1004.0
20260505200738 60 239 4.8 9.7 0.00 0.00 0.00 1004.0
20260505200234 60 217 4.8 11.3 0.00 0.00 0.00 1004.2
20260505195723 60 217 9.7 11.3 0.00 0.00 0.00 1004.4
20260505195222 60 242 1.6 3.2 0.00 0.00 0.00 1004.2
20260505194719 60 223 6.4 11.3 0.00 0.00 0.00 1004.4
20260505194215 60 236 6.4 9.7 0.00 0.00 0.00 1004.3
20260505193710 60 223 0.0 0.0 0.00 0.00 0.00 1004.5
20260505193208 60 240 0.0 0.0 0.00 0.00 0.00 1004.5
20260505192706 60 241 9.7 16.1 0.00 0.00 0.00 1004.6
20260505192204 60 219 8.0 12.9 0.00 0.00 0.00 1004.7
20260505191702 60 231 11.3 14.5 0.00 0.00 0.00 1004.7
20260505191200 60 225 8.0 11.3 0.00 0.00 0.00 1004.7
20260505190656 60 230 11.3 12.9 0.00 0.00 0.00 1004.7
20260505190155 60 228 11.3 12.9 0.00 0.00 0.00 1004.3
20260505185653 60 217 11.3 14.5 0.00 0.00 0.00 1004.7
20260505185149 60 228 12.9 17.7 0.00 0.00 0.00 1004.4
20260505184645 60 239 12.9 17.7 0.00 0.00 0.00 1004.3
20260505184143 60 216 11.3 14.5 0.00 0.00 0.00 1004.6
20260505183639 60 219 12.9 14.5 0.00 0.00 0.00 1004.6
20260505183137 60 246 17.7 22.5 0.00 0.00 0.00 1004.5
20260505182633 60 241 14.5 20.9 0.00 0.00 0.00 1004.7
20260505182130 60 231 12.9 16.1 0.00 0.00 0.00 1004.6
20260505181626 60 218 17.7 22.5 0.00 0.00 0.00 1004.9
20260505181124 60 250 12.9 14.5 0.00 0.00 0.00 1004.7
20260505180620 60 209 4.8 4.8 0.00 0.00 0.00 1004.7
20260505180118 60 231 17.7 20.9 0.00 0.00 0.00 1004.9
20260505175613 60 201 11.3 12.9 0.00 0.00 0.00 1005.2
20260505175110 60 222 8.0 9.7 0.00 0.00 0.00 1005.0
20260505174607 60 217 11.3 14.5 0.00 0.00 0.00 1004.8
20260505174103 60 215 17.7 24.1 0.00 0.00 0.00 1005.1
20260505173559 60 208 17.7 20.9 0.00 0.00 0.00 1005.0
20260505173056 60 232 11.3 14.5 0.00 0.00 0.00 1004.9
20260505172554 60 195 11.3 16.1 0.00 0.00 0.00 1004.9
20260505172051 60 213 14.5 16.1 0.00 0.00 0.00 1005.2
20260505171545 60 220 12.9 14.5 0.00 0.00 0.00 1005.0
20260505171042 60 210 19.3 25.7 0.00 0.00 0.00 1005.0
20260505170539 60 203 12.9 20.9 0.00 0.00 0.00 1005.0
20260505170036 60 216 19.3 24.1 0.00 0.00 0.00 1004.9
20260505165531 60 217 8.0 12.9 0.00 0.00 0.00 1004.8
20260505165027 60 197 9.7 11.3 0.00 0.00 0.00 1005.1
20260505164523 60 199 14.5 16.1 0.00 0.00 0.00 1004.9
20260505164021 60 212 14.5 20.9 0.00 0.00 0.00 1005.0
20260505163520 60 199 17.7 20.9 0.00 0.00 0.00 1005.0
20260505163016 60 227 14.5 20.9 0.00 0.00 0.00 1005.0
20260505162509 60 225 14.5 17.7 0.00 0.00 0.00 1004.9
20260505162006 60 223 11.3 12.9 0.00 0.00 0.00 1005.0
20260505161503 60 190 8.0 9.7 0.00 0.00 0.00 1005.0
20260505161000 60 225 11.3 16.1 0.00 0.00 0.00 1004.9
20260505160458 60 204 16.1 20.9 0.00 0.00 0.00 1004.8
20260505152934 60 199 16.1 17.7 0.00 0.00 0.00 1004.9
20260505152431 60 197 12.9 16.1 0.00 0.00 0.00 1004.5
20260505151926 60 227 12.9 16.1 0.00 0.00 0.00 1004.9
20260505151422 60 189 16.1 20.9 0.00 0.00 0.00 1004.7
20260505150920 60 180 9.7 12.9 0.00 0.00 0.00 1004.4
20260505150416 60 180 6.4 12.9 0.00 0.00 0.00 1004.5
20260505140340 60 186 0.0 0.0 0.00 0.00 0.00 1005.1
20260505130304 60 181 0.0 0.0 0.00 0.00 0.00 1004.6
20260505124754 60 190 0.0 0.0 0.00 0.00 0.00 1004.5
20260505124251 60 191 0.0 0.0 0.00 0.00 0.00 1004.9
20260505123746 60 188 0.0 0.0 0.00 0.00 0.00 1004.6
20260505123243 60 162 0.0 0.0 0.00 0.00 0.00 1004.6
20260505122740 60 174 0.0 0.0 0.00 0.00 0.00 1004.8
20260505122237 60 169 0.0 0.0 0.00 0.00 0.00 1004.4
20260505121734 60 179 0.0 0.0 0.00 0.00 0.00 1004.5
20260505121231 60 173 0.0 0.0 0.00 0.00 0.00 1004.5
20260505120727 60 168 0.0 0.0 0.00 0.00 0.00 1004.3
20260505120223 60 176 0.0 0.0 0.00 0.00 0.00 1004.0
20260505115721 60 139 0.0 0.0 0.00 0.00 0.00 1004.0
20260505115220 60 166 0.0 0.0 0.00 0.00 0.00 1004.0
20260505114717 60 171 0.0 0.0 0.00 0.00 0.00 1004.2
20260505114213 60 148 0.0 0.0 0.00 0.00 0.00 1004.2
20260505113709 60 177 0.0 0.0 0.00 0.00 0.00 1004.3
20260505113206 60 151 0.0 0.0 0.00 0.00 0.00 1003.9
20260505112702 60 141 0.0 0.0 0.00 0.00 0.00 1003.8
20260505112200 60 154 0.0 0.0 0.00 0.00 0.00 1003.9
20260505111700 60 167 0.0 0.0 0.00 0.00 0.00 1003.8
20260505111155 60 207 0.0 0.0 0.00 0.00 0.00 1003.8
20260505110652 60 154 0.0 0.0 0.00 0.00 0.00 1003.8
20260505110149 60 172 0.0 0.0 0.00 0.00 0.00 1003.8
20260505102125 60 179 3.2 8.0 0.00 0.00 0.00 1003.8
20260505101624 60 178 0.0 1.6 0.00 0.00 0.00 1003.7
20260505101120 60 198 0.0 0.0 0.00 0.00 0.00 1003.4
20260505100616 60 184 0.0 0.0 0.00 0.00 0.00 1003.9
20260505100113 60 173 1.6 8.0 0.00 0.00 0.00 1003.9
20260505095609 60 178 0.0 0.0 0.00 0.00 0.00 1003.5
20260505095106 60 166 4.8 9.7 0.00 0.00 0.00 1003.8
20260505094602 60 185 0.0 0.0 0.00 0.00 0.00 1003.8
20260505094058 60 185 0.0 3.2 0.00 0.00 0.00 1003.9
20260505093555 60 171 0.0 0.0 0.00 0.00 0.00 1003.8
20260505093053 60 179 0.0 1.6 0.00 0.00 0.00 1003.9
20260505092550 60 168 0.0 0.0 0.00 0.00 0.00 1003.7
20260505092048 60 169 1.6 4.8 0.00 0.00 0.00 1003.9
20260505091544 60 190 0.0 0.0 0.00 0.00 0.00 1004.0
20260505091043 60 166 0.0 0.0 0.00 0.00 0.00 1003.8
20260505090541 60 161 1.6 8.0 0.00 0.00 0.00 1004.0
20260505090038 60 176 0.0 0.0 0.00 0.00 0.00 1003.9
20260505085536 60 184 0.0 0.0 0.00 0.00 0.00 1004.0
20260505085034 60 181 3.2 8.0 0.00 0.00 0.00 1004.2
20260505084532 60 148 0.0 0.0 0.00 0.00 0.00 1004.5
20260505084030 60 172 1.6 4.8 0.00 0.00 0.00 1004.3
20260505083526 60 177 0.0 0.0 0.00 0.00 0.00 1004.5
20260505083023 60 189 0.0 0.0 0.00 0.00 0.00 1004.5
20260505082519 60 172 0.0 1.6 0.00 0.00 0.00 1004.6
20260505082015 60 177 4.8 11.3 0.00 0.00 0.00 1004.4